COSMOS 1275 DEB, 12743

Orbit data source: Space-Track

COSMOS 1275 DEB, 12743 is space debris in LEO originally from a launch on Thu, 04 Jun 1981 UTC launched from the Plesetsk Missile And Space Complex (PKMTR). Debris objects in space refer to the collection of defunct objects orbiting the Earth. Examples of debris include non-operational satellites, rocket bodies, and fragments generated from explosions, collisions, or faulty payload assembly.

Loading next visibility...
Identifier
12743, 1981-053CL
Orbit
LEO
Country
Flag of CISCIS
Related business
Manufacturer
Unknown
Mission
Spacecraft
Bus & Motor
Unknown
Mass
Unknown
Launch date (UTC)
1981-06-04 (45 years ago)
Launch vehicle
Unknown
Launch site
Plesetsk Missile And Space Complex (PKMTR)
Object type
Payload
Rocket body
Debris
Shape & HBR
Unknown shape, 0.2 m
Radar Cross Section
Medium (>0.1 m² and <1 m²)

Expand to show TLE details & history
Last TLE update: 13 hours ago

TLE from 13 hours ago
0 COSMOS 1275 DEB
1 12743U 81053CL  26255.68636225  .00000396  00000-0  35888-3 0  9995
2 12743  82.9254 146.5708 0061933 292.5895 127.3984 13.80490545263343
Epoch: 2026-09-12T16:28Z
TLE epoch observation values (Epoch: 2026-09-12T16:28:21.698Z)
Latitude
59.87876°
Longitude
-79.92468°
Altitude
1,000.12 km
Speed
7.343 km/s
True Right ascension
10h 35m 25s
True Declination
59° 44' 03"
Sunlit
Object was in daylight at epoch
Visualization orbit readout
Latitude
Unknown
Longitude
Unknown
Altitude
Unknown
Speed
Unknown
Apparent Right ascension
Unknown
Apparent Declination
Unknown
Sunlit
N/A
Visualization observer readout
Local Sidereal Time
22:03:01
Azimuth
Unknown
Elevation
Unknown
Doppler factor
Unknown
Orbital elements
Apogee altitude
1,004.732 km
Perigee altitude
913.846 km
Semi-major axis
7,337.426 km
Eccentricity
0.00619
Inclination
82.9254°
RAAN
146.5708°
Arg. of periapsis
292.5895°
True anomaly
127.95956°
Mean anomaly
127.3984°
Eccentric anomaly
127.67924°
Mean motion
3.45325 °/min
Orbital period
104.25 mins
BSTAR
0.00035888
Loading maneuver chart data...
Computing Atmospheric mass density...
Loading historical data...
Loading historical data...
Loading historical data...
Loading historical data...
Loading historical data...
Loading historical data...
Loading historical data...

Documentation

Showing up to 5 results
|